Regional Weather Roundup
Issued by NWS

Home | Current Version | Previous Version | Graphics & Text | Print | Product List | Glossary On
Versions: 1 2 3 4 5 6 7 8 9 10 11 12 13 14 15 16 17 18 19 20 21 22 23 24 25 26 27
000
ASUS45 KSLC 142310
RWRUT

UTAH REGIONAL WEATHER ROUNDUP
NATIONAL WEATHER SERVICE SALT LAKE CITY UT
400 PM MST THU DEC 14 2017

UTZ001>011-023>025-150000-

NORTHERN UTAH

CITY           SKY/WX    TMP DP  RH WIND       PRES   REMARKS
BRIGHAM CITY   CLEAR     37  27  67 S3        30.42S
DUGWAY         PTCLDY    39  22  52 NW3       30.40F
HILL AFB       CLEAR     35  26  70 SW7       30.39F WCI  29
LOGAN          CLEAR     32  22  66 CALM      30.41F
OGDEN          CLEAR     36  26  67 SW7       30.39F WCI  30
SALT LAKE CITY PTCLDY    38  27  64 CALM      30.41F
TOOELE VALLEY  CLEAR     37  27  65 CALM      30.41F
WENDOVER       CLEAR     37  25  61 SE3       30.42S
HEBER CITY       N/A     39  23  52 SW6       30.33S WCI  35
WEST JORDAN    CLEAR     36  28  75 CALM      30.41F

$$

UTZ011>015-024>027-150000-

CENTRAL/NORTHEAST UTAH

CITY           SKY/WX    TMP DP  RH WIND       PRES   REMARKS
PROVO AIRPORT  CLEAR     35  24  64 CALM      30.43S
MOAB/CANYONLAN CLEAR     49  17  28 CALM      30.26S
DELTA          CLEAR     37  23  56 NW5       30.40S WCI  34
PRICE          CLEAR     47  17  30 SW5       30.25S
ROOSEVELT      CLEAR     41  19  42 SE3       30.33S
VERNAL         CLEAR     41  19  41 SW5       30.31S

$$

UTZ013>016-019>022-027-150000-

SOUTHERN UTAH

CITY           SKY/WX    TMP DP  RH WIND       PRES   REMARKS
BRYCE CANYON   SUNNY     44   9  23 N13       30.28S
CEDAR CITY     SUNNY     41  21  44 N14       30.33R
MILFORD        SUNNY     41  22  46 N14       30.37S
ST GEORGE      CLEAR     58  21  24 SE3       30.24R
HANKSVILLE     CLEAR     50  14  23 E3        30.29S
BLANDING         N/A     46  13  27 NW13G20   30.28R

$$

REGIONAL REPORTS     COLORADO/ARIZONA

CITY           SKY/WX    TMP DP  RH WIND       PRES   REMARKS
CRAIG, CO      CLEAR     24  15  68 S7        30.32S WCI  16
GRAND JUNCTION CLEAR     45  15  30 NE16      30.28S
RIFLE, CO      CLEAR     40  12  32 NW15G23   30.30R WCI  32
MONTROSE, CO   CLEAR     42  13  30 NW8       30.29R
CORTEZ, CO     CLEAR     48  12  23 N21G31    30.15R
COLORADO CITY    N/A     54  19  26 NW14      30.25R
PAGE, AZ       SUNNY     54  17  23 E8        30.22R
GRAND CANYON   SUNNY     46  11  24 NE13      30.24R
KINGMAN, AZ    SUNNY     58  20  22 N23G32    30.15R
FLAGSTAFF, AZ  SUNNY     41  13  31 NE21G35   30.17R

$$

REGIONAL REPORTS    NEVADA/IDAHO/WYOMING

CITY           SKY/WX    TMP DP  RH WIND       PRES   REMARKS
LAS VEGAS, NV  SUNNY     66  19  16 NE17      30.19S
ELY, NY        SUNNY     45  17  32 N15       30.35S
ELKO, NV       SUNNY     42  24  49 SW3       30.38F
POCATELLO, ID  CLOUDY    24  21  88 VRB3      30.45S FOG
BURLEY, ID       N/A     31  23  72 E6        30.42S WCI  25
FORT BRIDGER,    N/A     38  13  35 W13G22    30.34R WCI  30
EVANSTON, WY   CLEAR     36  22  56 W8        30.34S WCI  30
ROCK SPRINGS,  CLEAR     34  15  46 W12       30.28S WCI  25

$$




USA.gov is the U.S. government's official web portal to all federal, state and local government web resources and services.